Date,TemperatureHighF,TemperatureAvgF,TemperatureLowF,DewpointHighF,DewpointAvgF,DewpointLowF,HumidityHigh,HumidityAvg,HumidityLow,PressureMaxIn,PressureMinIn,WindSpeedMaxMPH,WindSpeedAvgMPH,GustSpeedMaxMPH,PrecipitationSumIn
2013-2-1,24.8,10.8,-6.3,17.7,3.3,-10.5,84,71,53,30.28,29.93,18,6,18,0.00
2013-2-2,34.3,26.2,22.5,29.2,20.7,14.9,99,80,57,30.08,29.92,14,5,14,0.00
2013-2-3,40.1,31.2,19.8,27.8,21.9,16.3,86,70,44,30.09,29.69,18,6,18,0.00
2013-2-4,34.7,27.4,21.0,28.2,22.4,18.0,95,82,58,29.89,29.64,21,6,21,0.00
2013-2-5,51.8,35.3,23.7,36.6,27.9,21.8,96,77,48,29.96,29.73,16,5,16,0.00
2013-2-6,54.7,41.8,28.0,39.1,33.3,26.3,94,73,50,29.97,29.75,16,5,16,0.00
2013-2-7,46.2,36.5,28.9,43.6,34.4,26.1,99,92,76,30.09,29.72,22,9,22,0.24
2013-2-8,34.5,28.2,25.3,28.6,25.7,23.4,98,90,77,30.22,30.06,16,6,16,0.00
2013-2-9,47.8,36.4,27.3,35.7,31.5,26.3,99,84,60,30.09,29.60,21,9,21,0.01
2013-2-10,50.0,38.5,31.8,45.5,35.0,23.4,99,88,64,29.63,29.20,33,14,33,0.15
2013-2-11,40.5,31.2,23.7,28.1,24.1,21.3,96,75,57,30.03,29.63,30,9,30,0.00
2013-2-12,48.7,32.8,19.9,30.9,24.3,19.7,99,75,38,30.03,29.77,17,4,17,0.00
2013-2-13,54.1,39.3,26.2,31.8,27.3,22.7,87,65,35,29.78,29.60,15,5,15,0.00
2013-2-14,46.4,37.7,25.9,33.3,28.7,13.0,91,71,45,30.09,29.64,23,7,23,0.00
2013-2-15,33.8,23.7,14.4,20.6,15.4,10.6,90,71,46,30.22,30.09,20,6,20,0.00
2013-2-16,40.1,25.6,12.4,22.0,17.0,10.5,95,72,36,30.19,29.91,13,5,13,0.00
2013-2-17,54.9,39.4,25.2,32.0,26.3,20.0,84,62,38,29.91,29.48,19,6,19,0.00
2013-2-18,43.0,32.4,17.6,34.1,25.4,11.4,99,75,59,29.91,29.42,27,9,27,0.00
2013-2-19,29.7,16.9,9.0,12.4,3.9,-3.1,82,59,26,30.23,29.91,20,8,20,0.00
2013-2-20,25.7,15.5,2.1,8.3,3.1,-3.0,82,59,40,30.27,30.10,17,7,17,0.00
2013-2-21,23.2,21.5,20.1,22.8,16.9,8.3,99,83,56,30.12,29.67,31,12,31,0.00
2013-2-22,28.6,21.4,15.3,22.8,17.7,12.7,99,86,65,29.90,29.66,14,5,14,0.00
2013-2-23,36.9,21.2,3.0,24.3,15.3,1.1,95,79,55,29.89,29.75,11,4,11,0.04
2013-2-24,48.6,31.7,15.4,28.7,23.6,14.8,98,74,43,29.92,29.79,9,3,9,0.00
2013-2-25,42.1,35.1,30.7,31.3,29.2,26.8,95,80,60,29.92,29.73,17,6,17,0.00
2013-2-26,33.1,30.1,28.0,32.1,28.9,25.7,99,95,87,29.73,29.59,27,10,27,0.07
2013-2-27,37.6,29.9,25.5,28.4,25.6,22.7,99,85,65,29.91,29.71,24,10,24,0.02
2013-2-28,34.9,29.0,24.3,27.3,24.4,21.4,90,83,67,30.06,29.91,21,9,21,0.00